Location: 3 Angels Observatory
(30.5437°N, 88.5068°W)
Time: 23:35:01
(UTC-05:00)

Amateur Radio Satellites - All Passes

Search period start: 31 March 2015 23:05
Search period end: 01 April 2015 23:05
Location: 3 Angels Observatory, 30.5437°N, 88.5068°W

Satellite Date Start Highest point End Downlink Frequencies (MHz)
Time Altitude Azimuth
CUBEBUG 1 31 Mar 23:06:28 23:10:30 37° 74° (ENE) 23:14:35 437.445
UWE-3 31 Mar 23:06:57 23:09:56 18° 266° (W) 23:12:45 435.000/436.395/437.385
ZACube-1 31 Mar 23:09:11 23:12:27 21° 265° (W) 23:15:36 437.345
VELOX 1 31 Mar 23:13:52 23:18:19 71° 259° (W) 23:22:44 145.980
CUBEBUG 2 31 Mar 23:19:48 23:20:49 11° 269° (W) 23:21:31 437.445
AISAT 31 Mar 23:19:49 23:24:12 57° 260° (W) 23:28:33 437.250
PCSat 31 Mar 23:29:22 23:34:10 32° 59° (ENE) 23:39:01 145.827
UNISAT 6 31 Mar 23:32:22 23:37:01 87° 279° (W) 23:41:44 437.425
QB50P1 31 Mar 23:38:41 23:42:48 51° 99° (E) 23:46:57 145.935-145.965
DUCHIFAT 1 31 Mar 23:38:58 23:43:04 50° 99° (E) 23:47:11 145.980
HUMSAT D 31 Mar 23:39:02 23:42:05 19° 266° (W) 23:45:01 437.325/437.525
TIGRISAT 31 Mar 23:41:22 23:45:59 70° 283° (WNW) 23:50:39 435.000
UKube-1 31 Mar 23:48:57 23:50:19 11° 268° (W) 23:51:23 .
QB50P2 31 Mar 23:54:23 23:58:39 85° 102° (ESE) 00:02:55 145.880/145.840
50 SAT 31 Mar 23:54:28 23:57:17 18° 266° (W) 23:59:58 437.505
ESTCUBE 1 31 Mar 23:58:27 00:02:48 43° 261° (W) 00:07:08 437.505/2401.250
BUGSAT 1 01 Apr 00:07:24 00:11:26 83° 100° (E) 00:15:29 437.445
ANTELSAT 01 Apr 00:13:38 00:17:40 29° 287° (WNW) 00:21:39 437.575/2403.000
TISAT 1 01 Apr 00:20:29 00:24:35 54° 76° (ENE) 00:28:42 437.305
POPSAT HIP 1 01 Apr 00:22:45 00:26:46 42° 285° (WNW) 00:30:45 437.405
NANOSAT C BR1 01 Apr 00:32:24 00:36:11 32° 286° (WNW) 00:39:56 145.865
POLYITAN 1 01 Apr 00:39:20 00:42:55 26° 287° (WNW) 00:46:27 437.675
SPROUT 01 Apr 00:40:46 00:45:02 67° 259° (W) 00:49:18 437.525
YUBILEINY 01 Apr 00:42:40 00:51:13 54° 79° (E) 00:59:43 435.215
CUBEBUG 1 01 Apr 00:44:35 00:47:03 14° 267° (W) 00:49:16 437.445
SWISSCUBE 01 Apr 00:46:57 00:49:56 17° 70° (ENE) 00:53:08 437.505
BEESAT 01 Apr 00:49:31 00:52:25 17° 69° (ENE) 00:55:32 436.000
PCSat 01 Apr 01:13:01 01:17:28 26° 252° (WSW) 01:21:47 145.827
Oscar 19 01 Apr 01:28:25 01:32:17 22° 94° (E) 01:36:20 437.125/150
ITUPSAT 1 01 Apr 01:36:13 01:40:54 55° 75° (ENE) 01:45:37 437.325
KKS-1 01 Apr 01:51:17 01:52:47 12° 69° (ENE) 01:54:33 437.445
Gurwin Techsat 1B 01 Apr 02:07:51 02:09:31 12° 91° (E) 02:11:36 435.225
STARS 01 Apr 02:15:54 02:18:07 14° 70° (ENE) 02:20:33 437.465
VERMONT LUNAR 01 Apr 02:16:42 02:18:05 12° 140° (SE) 02:19:33 437.305
SWISSCUBE 01 Apr 02:23:04 02:27:33 38° 262° (W) 02:32:00 437.505
BEESAT 01 Apr 02:25:30 02:29:59 39° 261° (W) 02:34:28 436.000
RS-15 01 Apr 02:34:28 02:43:05 24° 42° (NE) 02:52:26 29.354- 29.394
ITAMSAT 1 01 Apr 02:39:31 02:44:10 34° 98° (E) 02:48:52 435.822/435.867
YUBILEINY 01 Apr 02:40:36 02:47:36 26° 274° (W) 02:54:12 435.215
AIST 1 01 Apr 02:54:58 02:55:25 10° 88° (E) 02:56:12
Oscar 19 01 Apr 03:07:04 03:11:42 33° 288° (WNW) 03:16:17 437.125/150
O/OREOS (USA 219) 01 Apr 03:15:51 03:20:16 50° 105° (ESE) 03:24:44 437.305
ITUPSAT 1 01 Apr 03:17:39 03:19:11 11° 269° (W) 03:20:22 437.325
PHONESAT 2.4 01 Apr 03:19:57 03:22:18 17° 141° (SE) 03:24:44 2401.200-2431.200
KKS-1 01 Apr 03:24:48 03:29:05 47° 260° (W) 03:33:21 437.445
SO-50 01 Apr 03:41:41 03:46:35 59° 60° (ENE) 03:51:24 436.795
Gurwin Techsat 1B 01 Apr 03:44:44 03:49:59 62° 285° (WNW) 03:55:12 435.225
MOZHAYETS 4 01 Apr 03:46:34 03:48:08 12° 69° (ENE) 03:50:00
STARS 01 Apr 03:50:14 03:54:19 38° 262° (W) 03:58:23 437.465
VERMONT LUNAR 01 Apr 03:52:08 03:55:28 81° 329° (NNW) 03:58:49 437.305
HORYU 2 01 Apr 03:58:54 04:03:05 38° 98° (E) 04:07:17 437.375
ITAMSAT 1 01 Apr 04:19:32 04:23:30 22° 290° (WNW) 04:27:17 435.822/435.867
ISS 01 Apr 04:24:27 04:26:26 15° 35° (NE) 04:28:28 145.825
AIST 1 01 Apr 04:28:29 04:32:43 45° 279° (W) 04:36:57
AO-7 01 Apr 04:39:17 04:47:22 56° 102° (ESE) 04:55:29 29.400- 29.500
RS-15 01 Apr 04:45:30 04:57:13 88° 243° (WSW) 05:09:23 29.354- 29.394
JAS-2 01 Apr 04:48:52 04:56:18 61° 99° (E) 05:02:58 435.910
PHONESAT 2.4 01 Apr 04:56:55 05:00:25 64° 332° (NNW) 05:03:55 2401.200-2431.200
AUBIESAT-1 01 Apr 04:57:28 05:00:55 29° 67° (ENE) 05:04:41 437.475
O/OREOS (USA 219) 01 Apr 04:58:04 05:00:04 12° 301° (WNW) 05:01:49 437.305
GONETS M04 01 Apr 05:04:00 05:07:17 13° 65° (ENE) 05:11:22
MOZHAYETS 4 01 Apr 05:20:29 05:24:59 51° 261° (W) 05:29:30
M-CUBED/EXP-1 PRIME 01 Apr 05:23:56 05:27:51 73° 73° (ENE) 05:32:11 437.505
SO-50 01 Apr 05:24:44 05:26:43 12° 252° (WSW) 05:28:21 436.795
VERMONT LUNAR 01 Apr 05:30:55 05:33:29 20° 346° (NNW) 05:36:02 437.305
HORYU 2 01 Apr 05:36:46 05:39:28 15° 290° (WNW) 05:41:58 437.375
CUBESAT XI-V 01 Apr 05:40:43 05:43:25 16° 70° (ENE) 05:46:19 437.345
ISS 01 Apr 05:59:57 06:02:57 36° 230° (SW) 06:05:56 145.825
STRAND 1 01 Apr 06:01:35 06:04:26 16° 68° (ENE) 06:07:32 437.568
AO-7 01 Apr 06:33:02 06:39:47 28° 296° (WNW) 06:46:16 29.400- 29.500
AUBIESAT-1 01 Apr 06:33:07 06:35:51 17° 264° (W) 06:38:34 437.475
JAS-2 01 Apr 06:35:11 06:40:42 22° 295° (WNW) 06:45:35 435.910
PHONESAT 2.4 01 Apr 06:36:31 06:39:11 19° 349° (NNW) 06:41:49 2401.200-2431.200
PRISM 01 Apr 06:48:06 06:52:18 78° 77° (ENE) 06:56:32 437.425
GONETS M04 01 Apr 06:56:44 07:05:38 86° 84° (E) 07:14:29
CUTE-I 01 Apr 07:01:28 07:06:44 65° 101° (E) 07:12:00 437.470
RS-15 01 Apr 07:01:28 07:08:43 17° 256° (WSW) 07:14:59 29.354- 29.394
Cubesat XI-IV 01 Apr 07:02:34 07:07:52 67° 101° (ESE) 07:13:09 437.490
VERMONT LUNAR 01 Apr 07:09:56 07:11:56 15° 3° (N) 07:13:57 437.305
DANDE 01 Apr 07:15:17 07:18:58 22° 80° (E) 07:23:41 436.750
CUBESAT XI-V 01 Apr 07:16:09 07:20:35 40° 262° (W) 07:24:59 437.345
STRAND 1 01 Apr 07:38:20 07:43:18 48° 260° (W) 07:48:16 437.568
CUSAT 1 01 Apr 07:48:44 07:53:45 67° 82° (E) 08:00:26 437.405
PHONESAT 2.4 01 Apr 08:15:57 08:18:19 17° 6° (N) 08:20:42 2401.200-2431.200
CUTE-I 01 Apr 08:44:06 08:46:21 12° 293° (WNW) 08:48:17 437.470
Cubesat XI-IV 01 Apr 08:45:26 08:47:28 12° 294° (WNW) 08:49:11 437.490
BRITE-PL 01 Apr 08:46:35 08:50:36 37° 99° (E) 08:54:54 437.365/2234.400
VERMONT LUNAR 01 Apr 08:47:18 08:50:17 29° 20° (NNE) 08:53:16 437.305
DOVE 4 01 Apr 08:52:14 08:55:15 18° 95° (E) 08:58:34 437.250
HO-68 01 Apr 08:56:33 09:02:57 35° 98° (E) 09:09:27 435.675
GONETS M04 01 Apr 08:57:05 09:01:35 14° 277° (W) 09:05:19
DANDE 01 Apr 08:57:42 09:02:09 33° 263° (W) 09:07:45 436.750
BEESAT 2 01 Apr 09:01:32 09:05:17 36° 113° (ESE) 09:09:06 435.950
CANX-2 01 Apr 09:16:16 09:20:27 47° 99° (E) 09:24:37 2200.000
GOMX 1 01 Apr 09:17:12 09:21:32 56° 100° (E) 09:26:11 467.674
CUTE 1.7 + AOD 2 01 Apr 09:29:38 09:33:55 64° 100° (E) 09:38:11 437.475
CUSAT 1 01 Apr 09:34:26 09:36:42 12° 265° (W) 09:38:38 437.405
BEESAT 3 01 Apr 09:34:30 09:38:32 68° 298° (WNW) 09:42:39 437.485
CUBEBUG 2 01 Apr 09:37:29 09:40:00 15° 93° (E) 09:42:47 437.445
AAUSAT CUBESAT 2 01 Apr 09:42:08 09:46:15 49° 99° (E) 09:50:20 437.432
CINEMA 3 01 Apr 09:45:03 09:49:16 37° 98° (E) 09:53:41 145.822/145.860
PHONESAT 2.4 01 Apr 09:53:57 09:57:16 37° 22° (NNE) 10:00:36 2401.200-2431.200
SEEDS 01 Apr 09:54:10 09:58:28 75° 282° (WNW) 10:02:43 437.485
UKube-1 01 Apr 10:05:07 10:06:36 12° 92° (E) 10:08:23 .
COMPASS 1 01 Apr 10:11:51 10:16:02 55° 284° (WNW) 10:20:10 437.405
DX 1 01 Apr 10:18:14 10:21:17 19° 95° (E) 10:24:29 434.975-435.025
VERMONT LUNAR 01 Apr 10:24:49 10:28:02 44° 214° (SW) 10:31:15 437.305
UNISAT 6 01 Apr 10:26:19 10:30:16 39° 74° (ENE) 10:34:18 437.425
BRITE-PL 01 Apr 10:26:36 10:28:58 14° 288° (WNW) 10:31:11 437.365/2234.400
QB50P1 01 Apr 10:27:05 10:30:00 19° 72° (ENE) 10:33:02 145.935-145.965
DUCHIFAT 1 01 Apr 10:27:07 10:29:57 18° 72° (ENE) 10:32:56 145.980
DOVE 4 01 Apr 10:29:06 10:33:04 31° 285° (WNW) 10:37:12 437.250
Oscar 11 01 Apr 10:31:03 10:35:26 88° 102° (ESE) 10:39:47 145.826/435.025
AIST 2 01 Apr 10:31:36 10:35:46 58° 299° (WNW) 10:40:00 435.215
TIGRISAT 01 Apr 10:34:53 10:38:58 49° 75° (ENE) 10:43:08 435.000
DELFI C3 01 Apr 10:37:17 10:41:24 81° 100° (E) 10:45:28 145.870
BEESAT 2 01 Apr 10:41:02 10:43:36 15° 308° (NW) 10:46:01 435.950
QB50P2 01 Apr 10:42:16 10:45:55 30° 74° (ENE) 10:49:38 145.880/145.840
HO-68 01 Apr 10:44:11 10:50:38 35° 292° (WNW) 10:56:56 435.675
FUNcube-1 01 Apr 10:47:48 10:52:15 68° 101° (E) 10:56:46 145.935
BUGSAT 1 01 Apr 10:52:30 10:55:58 26° 73° (ENE) 10:59:28 437.445
CANX-2 01 Apr 10:54:39 10:56:01 11° 290° (WNW) 10:57:06 2200.000
GOMX 1 01 Apr 10:59:04 10:59:25 10° 289° (WNW) 10:59:27 467.674
UWE-3 01 Apr 11:00:35 11:05:03 65° 283° (WNW) 11:09:36 435.000/436.395/437.385
ZACube-1 01 Apr 11:01:56 11:06:24 79° 283° (WNW) 11:10:56 437.345
CUBEBUG 1 01 Apr 11:03:57 11:04:27 10° 91° (E) 11:05:17 437.445
ANTELSAT 01 Apr 11:06:46 11:10:59 61° 260° (W) 11:15:14 437.575/2403.000
POPSAT HIP 1 01 Apr 11:09:43 11:13:54 67° 77° (ENE) 11:18:05 437.405
VELOX 1 01 Apr 11:10:25 11:14:23 33° 98° (E) 11:18:23 145.980
CUBEBUG 2 01 Apr 11:12:38 11:16:49 38° 285° (WNW) 11:21:05 437.445
AISAT 01 Apr 11:16:23 11:20:32 41° 99° (E) 11:24:42 437.250
NANOSAT C BR1 01 Apr 11:18:54 11:23:08 88° 69° (ENE) 11:27:20 145.865
AAUSAT CUBESAT 2 01 Apr 11:20:55 11:21:30 10° 291° (WNW) 11:21:48 437.432
CINEMA 3 01 Apr 11:23:23 11:26:16 16° 288° (WNW) 11:29:00 145.822/145.860
POLYITAN 1 01 Apr 11:26:10 11:30:22 73° 259° (WSW) 11:34:34 437.675
HUMSAT D 01 Apr 11:27:20 11:31:38 82° 284° (WNW) 11:35:57 437.325/437.525
PHONESAT 2.4 01 Apr 11:32:21 11:35:35 33° 215° (SW) 11:38:47 2401.200-2431.200
50 SAT 01 Apr 11:36:22 11:40:25 81° 101° (ESE) 11:44:29 437.505
UKube-1 01 Apr 11:38:55 11:43:00 41° 286° (WNW) 11:47:03 .
JUGNU 01 Apr 11:51:21 11:55:20 19° 166° (SSE) 11:59:24 437.505
DX 1 01 Apr 11:53:54 11:57:33 26° 288° (WNW) 12:01:07 434.975-435.025
ESTCUBE 1 01 Apr 11:56:41 12:01:08 60° 100° (E) 12:05:34 437.505/2401.250
DUCHIFAT 1 01 Apr 12:02:04 12:05:39 26° 264° (W) 12:09:09 145.980
QB50P1 01 Apr 12:02:11 12:05:44 25° 264° (W) 12:09:12 145.935-145.965
UNISAT 6 01 Apr 12:05:29 12:07:19 12° 268° (W) 12:08:53 437.425
TISAT 1 01 Apr 12:12:27 12:14:25 13° 93° (E) 12:16:38 437.305
QB50P2 01 Apr 12:19:13 12:21:54 16° 266° (W) 12:24:25 145.880/145.840
BUGSAT 1 01 Apr 12:28:36 12:31:28 17° 265° (W) 12:34:10 437.445
SPROUT 01 Apr 12:33:24 12:37:12 32° 97° (E) 12:41:04 437.525
CUBEBUG 1 01 Apr 12:36:59 12:41:09 47° 285° (WNW) 12:45:16 437.445
Oscar 19 01 Apr 12:40:31 12:43:51 18° 69° (ENE) 12:47:23 437.125/150
VELOX 1 01 Apr 12:47:55 12:50:44 16° 289° (WNW) 12:53:22 145.980
AISAT 01 Apr 12:54:35 12:56:50 13° 290° (WNW) 12:58:51 437.250
SRMSAT 01 Apr 12:57:26 13:00:44 15° 164° (SSE) 13:04:09 437.500
Gurwin Techsat 1B 01 Apr 13:24:13 13:25:51 12° 67° (ENE) 13:27:49 435.225
O/OREOS (USA 219) 01 Apr 13:31:38 13:35:50 37° 67° (ENE) 13:40:01 437.305
YUBILEINY 01 Apr 13:35:50 13:44:33 74° 94° (E) 13:53:23 435.215
JUGNU 01 Apr 13:38:50 13:43:51 28° 175° (S) 13:48:54 437.505
ITUPSAT 1 01 Apr 13:43:18 13:46:59 23° 95° (E) 13:50:47 437.325
TISAT 1 01 Apr 13:46:33 13:50:23 35° 286° (WNW) 13:54:10 437.305
ITAMSAT 1 01 Apr 13:52:11 13:56:38 30° 72° (ENE) 14:01:11 435.822/435.867
PCSat 01 Apr 14:04:44 14:10:09 88° 290° (WNW) 14:15:36 145.827
SPROUT 01 Apr 14:10:22 14:13:05 16° 289° (WNW) 14:15:36 437.525
Oscar 19 01 Apr 14:18:09 14:22:57 40° 262° (W) 14:27:44 437.125/150
SWISSCUBE 01 Apr 14:28:44 14:33:32 87° 108° (ESE) 14:38:17 437.505
BEESAT 01 Apr 14:31:05 14:35:53 85° 103° (ESE) 14:40:39 436.000
AIST 1 01 Apr 14:42:03 14:45:29 24° 77° (ENE) 14:48:58
SRMSAT 01 Apr 14:44:33 14:49:25 26° 172° (S) 14:54:18 437.500
HORYU 2 01 Apr 14:52:54 14:55:49 18° 71° (ENE) 14:58:54 437.375
JAS-2 01 Apr 14:56:24 15:00:12 16° 63° (ENE) 15:04:36 435.910
Gurwin Techsat 1B 01 Apr 15:00:02 15:05:19 68° 258° (WSW) 15:10:38 435.225
O/OREOS (USA 219) 01 Apr 15:12:29 15:14:57 14° 259° (W) 15:17:11 437.305
ITUPSAT 1 01 Apr 15:20:48 15:24:52 28° 288° (WNW) 15:28:50 437.325
KKS-1 01 Apr 15:21:25 15:25:44 50° 100° (E) 15:30:04 437.445
JUGNU 01 Apr 15:27:24 15:32:26 28° 185° (S) 15:37:28 437.505
ITAMSAT 1 01 Apr 15:31:52 15:36:08 25° 264° (W) 15:40:18 435.822/435.867
AO-7 01 Apr 15:32:08 15:39:52 46° 68° (ENE) 15:47:42 29.400- 29.500
YUBILEINY 01 Apr 15:36:22 15:42:21 19° 292° (WNW) 15:47:50 435.215
STARS 01 Apr 15:45:15 15:49:37 60° 101° (E) 15:53:58 437.465
PCSat 01 Apr 15:53:51 15:54:26 10° 312° (NW) 15:54:40 145.827
AIST 1 01 Apr 16:19:56 16:23:01 19° 270° (W) 16:25:55
HORYU 2 01 Apr 16:28:21 16:32:17 30° 263° (W) 16:36:10 437.375
SRMSAT 01 Apr 16:33:02 16:38:08 29° 182° (S) 16:43:13 437.500
JAS-2 01 Apr 16:37:29 16:44:18 82° 258° (WSW) 16:51:55 435.910
RS-15 01 Apr 16:54:05 17:01:02 21° 105° (ESE) 17:08:42 29.354- 29.394
KKS-1 01 Apr 17:00:29 17:02:00 11° 291° (WNW) 17:03:14 437.445
M-CUBED/EXP-1 PRIME 01 Apr 17:13:39 17:15:09 12° 94° (E) 17:16:58 437.505
JUGNU 01 Apr 17:16:56 17:20:58 18° 194° (SSW) 17:24:56 437.505
MOZHAYETS 4 01 Apr 17:21:14 17:25:48 58° 100° (E) 17:30:21
AO-7 01 Apr 17:25:33 17:32:49 32° 262° (W) 17:39:53 29.400- 29.500
SO-50 01 Apr 17:50:39 17:55:10 70° 116° (ESE) 17:59:51 436.795
GONETS M04 01 Apr 17:57:46 18:02:54 18° 84° (E) 18:08:38
BEESAT 3 01 Apr 18:00:19 18:02:21 14° 51° (NE) 18:04:33 437.485
CUTE-I 01 Apr 18:17:40 18:22:56 61° 75° (ENE) 18:28:14 437.470
AUBIESAT-1 01 Apr 18:18:06 18:22:51 62° 104° (ESE) 18:27:21 437.475
Cubesat XI-IV 01 Apr 18:18:55 18:24:13 64° 75° (ENE) 18:29:32 437.490
SRMSAT 01 Apr 18:22:22 18:26:50 22° 192° (SSW) 18:31:15 437.500
PRISM 01 Apr 18:37:36 18:40:13 17° 94° (E) 18:42:58 437.425
M-CUBED/EXP-1 PRIME 01 Apr 18:45:43 18:50:27 55° 289° (WNW) 18:54:56 437.505
AIST 2 01 Apr 18:59:42 19:02:30 17° 53° (NE) 19:05:23 435.215
MOZHAYETS 4 01 Apr 19:01:29 19:02:36 11° 292° (WNW) 19:03:23
RS-15 01 Apr 19:01:33 19:12:28 77° 299° (WNW) 19:23:30 29.354- 29.394
BEESAT 2 01 Apr 19:03:51 19:07:56 61° 62° (ENE) 19:11:56 435.950
CUBESAT XI-V 01 Apr 19:18:16 19:22:54 80° 100° (E) 19:27:29 437.345
HO-68 01 Apr 19:22:01 19:25:27 15° 62° (ENE) 19:29:20 435.675
SO-50 01 Apr 19:34:40 19:36:19 11° 313° (NW) 19:37:44 436.795
BEESAT 3 01 Apr 19:36:47 19:40:38 40° 247° (WSW) 19:44:23 437.485
GONETS M04 01 Apr 19:50:23 19:59:02 71° 278° (W) 20:07:46
BRITE-PL 01 Apr 19:52:50 19:56:33 24° 74° (ENE) 20:00:10 437.365/2234.400
STRAND 1 01 Apr 19:54:24 19:59:31 89° 289° (WNW) 20:04:37 437.568
AUBIESAT-1 01 Apr 19:55:17 19:57:07 12° 297° (WNW) 19:58:39 437.475
CUTE-I 01 Apr 20:01:13 20:03:29 12° 269° (W) 20:05:22 437.470
Cubesat XI-IV 01 Apr 20:02:50 20:04:49 12° 269° (W) 20:06:23 437.490
CANX-2 01 Apr 20:05:01 20:07:43 17° 71° (ENE) 20:10:35 2200.000
PRISM 01 Apr 20:12:11 20:15:45 27° 287° (WNW) 20:19:12 437.425
SRMSAT 01 Apr 20:14:36 20:15:29 10° 199° (SSW) 20:16:11 437.500
CUTE 1.7 + AOD 2 01 Apr 20:17:50 20:21:03 22° 72° (ENE) 20:24:24 437.475
GOMX 1 01 Apr 20:20:44 20:24:38 31° 75° (ENE) 20:28:26 467.674
DANDE 01 Apr 20:24:55 20:27:31 24° 97° (E) 20:29:50 436.750
AAUSAT CUBESAT 2 01 Apr 20:28:52 20:31:28 17° 71° (ENE) 20:34:13 437.432
AIST 2 01 Apr 20:37:25 20:41:12 32° 248° (WSW) 20:44:52 435.215
SEEDS 01 Apr 20:40:57 20:44:45 35° 74° (ENE) 20:48:37 437.485
CINEMA 3 01 Apr 20:43:12 20:45:45 16° 72° (ENE) 20:48:25 145.822/145.860
CUSAT 1 01 Apr 20:55:17 20:58:06 48° 278° (W) 21:00:38 437.405
COMPASS 1 01 Apr 20:57:32 21:01:31 45° 76° (ENE) 21:05:33 437.405
ISS 01 Apr 20:58:12 21:01:28 89° 312° (NW) 21:04:43 145.825
HO-68 01 Apr 21:05:17 21:12:27 84° 256° (WSW) 21:19:41 435.675
RS-15 01 Apr 21:19:47 21:27:09 19° 324° (NW) 21:34:05 29.354- 29.394
DELFI C3 01 Apr 21:20:13 21:23:24 23° 73° (ENE) 21:26:40 145.870
Oscar 11 01 Apr 21:20:34 21:24:23 32° 74° (ENE) 21:28:16 145.826/435.025
DOVE 4 01 Apr 21:29:14 21:33:32 56° 260° (W) 21:37:39 437.250
BRITE-PL 01 Apr 21:31:17 21:35:03 23° 264° (W) 21:38:31 437.365/2234.400
FUNcube-1 01 Apr 21:39:05 21:42:24 24° 73° (ENE) 21:45:50 145.935
CANX-2 01 Apr 21:39:46 21:43:28 28° 264° (W) 21:47:08 2200.000
UWE-3 01 Apr 21:52:34 21:56:33 48° 76° (ENE) 22:00:34 435.000/436.395/437.385
ZACube-1 01 Apr 21:52:55 21:56:42 37° 75° (ENE) 22:00:35 437.345
CUTE 1.7 + AOD 2 01 Apr 21:53:33 21:56:55 22° 265° (W) 22:00:10 437.475
GOMX 1 01 Apr 21:59:58 22:02:51 16° 266° (W) 22:05:28 467.674
AAUSAT CUBESAT 2 01 Apr 22:03:15 22:06:55 28° 264° (W) 22:10:31 437.432
VELOX 1 01 Apr 22:03:58 22:06:34 16° 70° (ENE) 22:09:22 145.980
CUBEBUG 2 01 Apr 22:05:21 22:09:29 89° 256° (WSW) 22:13:39 437.445
AISAT 01 Apr 22:09:48 22:12:53 19° 71° (ENE) 22:16:07 437.250
HUMSAT D 01 Apr 22:14:12 22:17:48 31° 74° (ENE) 22:21:28 437.325/437.525
50 SAT 01 Apr 22:17:49 22:20:43 21° 73° (ENE) 22:23:44 437.505
SEEDS 01 Apr 22:18:31 22:20:44 13° 268° (W) 22:22:43 437.485
CINEMA 3 01 Apr 22:19:09 22:22:48 28° 263° (W) 22:26:22 145.822/145.860
UNISAT 6 01 Apr 22:25:01 22:27:27 15° 93° (E) 22:30:09 437.425
UKube-1 01 Apr 22:27:51 22:32:10 78° 77° (ENE) 22:36:31 .
TIGRISAT 01 Apr 22:32:57 22:35:59 18° 94° (E) 22:39:12 435.000
DX 1 01 Apr 22:43:10 22:47:29 63° 259° (WSW) 22:51:48 434.975-435.025
ESTCUBE 1 01 Apr 22:51:13 22:55:04 28° 73° (ENE) 22:58:59 437.505/2401.250
DELFI C3 01 Apr 22:55:30 22:58:31 19° 265° (W) 23:01:27 145.870
Oscar 11 01 Apr 22:58:02 23:00:41 15° 267° (W) 23:03:08 145.826/435.025
